When you browse on this site, cookies collect data to enhance your experience and personalize the content and advertising you see.
Visit our Privacy Policy to learn more. By continuing to use the site, you agree to this use of cookies and data.
  • In United Kingdom
  • List of Countries
  • For 7 days
  • Water Temperature
  • Satellite Maps
  • Weather Map
  • Weather Widgets
  • user-avatar
    Login

    Hourly Weather Aberlady

    Today, 20 June, Thursday

    Time Temperature Precipitation Wind Pressure Humidity
    00:00 +11°C° 0 mm 3 mps 749 mmHg 91%
    01:00 +11°C° 0.5 mm 3 mps 749 mmHg 92%
    02:00 +10°C° 0.5 mm 3 mps 748 mmHg 93%
    03:00 +10°C° 0.5 mm 3 mps 748 mmHg 94%
    04:00 +10°C° 0 mm 4 mps 748 mmHg 92%
    05:00 +9°C° 0 mm 5 mps 748 mmHg 90%
    06:00 +9°C° 0 mm 5 mps 748 mmHg 88%
    07:00 +10°C° 0 mm 6 mps 748 mmHg 83%
    08:00 +11°C° 0 mm 6 mps 749 mmHg 77%
    09:00 +12°C° 0 mm 7 mps 749 mmHg 72%
    10:00 +12°C° 0.1 mm 7 mps 749 mmHg 71%
    11:00 +14°C° 0.1 mm 7 mps 749 mmHg 70%
    12:00 +13°C° 0.1 mm 8 mps 749 mmHg 68%
    13:00 +13°C° 0.2 mm 8 mps 750 mmHg 69%
    14:00 +13°C° 0.2 mm 8 mps 750 mmHg 70%
    15:00 +13°C° 0.2 mm 8 mps 750 mmHg 70%
    16:00 +14°C° 0 mm 7 mps 750 mmHg 69%
    17:00 +12°C° 0 mm 7 mps 751 mmHg 68%
    18:00 +12°C° 0 mm 7 mps 751 mmHg 67%
    19:00 +11°C° 0 mm 6 mps 751 mmHg 69%
    20:00 +9°C° 0 mm 6 mps 752 mmHg 71%
    21:00 +8°C° 0 mm 5 mps 752 mmHg 73%
    22:00 +8°C° 0 mm 5 mps 753 mmHg 78%
    23:00 +7°C° 0 mm 5 mps 753 mmHg 82%

    Tomorrow, 21 June, Friday

    Time Temperature Precipitation Wind Pressure Humidity
    00:00 +6°C° 0 mm 5 mps 754 mmHg 86%
    01:00 +6°C° 0 mm 5 mps 754 mmHg 87%
    02:00 +6°C° 0 mm 5 mps 754 mmHg 89%
    03:00 +6°C° 0 mm 5 mps 754 mmHg 91%
    04:00 +5°C° 0 mm 6 mps 754 mmHg 87%
    05:00 +7°C° 0 mm 6 mps 755 mmHg 84%
    06:00 +8°C° 0 mm 7 mps 755 mmHg 80%
    07:00 +9°C° 0 mm 6 mps 755 mmHg 76%
    08:00 +10°C° 0 mm 6 mps 756 mmHg 72%
    09:00 +11°C° 0 mm 6 mps 756 mmHg 68%
    10:00 +13°C° 0 mm 6 mps 757 mmHg 66%
    11:00 +14°C° 0 mm 6 mps 757 mmHg 64%
    12:00 +15°C° 0 mm 6 mps 757 mmHg 61%
    13:00 +15°C° 0.1 mm 6 mps 758 mmHg 61%
    14:00 +15°C° 0.1 mm 6 mps 758 mmHg 61%
    15:00 +15°C° 0.1 mm 6 mps 758 mmHg 62%
    16:00 +15°C° 0 mm 5 mps 758 mmHg 63%
    17:00 +15°C° 0 mm 5 mps 759 mmHg 65%
    18:00 +14°C° 0 mm 4 mps 759 mmHg 67%
    19:00 +13°C° 0 mm 4 mps 759 mmHg 70%
    20:00 +11°C° 0 mm 4 mps 760 mmHg 73%
    21:00 +10°C° 0 mm 3 mps 760 mmHg 76%
    22:00 +9°C° 0 mm 3 mps 760 mmHg 77%
    23:00 +8°C° 0 mm 3 mps 760 mmHg 77%

    Day after tomorrow, 22 June, Saturday

    Time Temperature Precipitation Wind Pressure Humidity
    00:00 +8°C° 0 mm 3 mps 760 mmHg 78%
    01:00 +8°C° 0 mm 3 mps 760 mmHg 79%
    02:00 +7°C° 0 mm 3 mps 761 mmHg 80%
    03:00 +7°C° 0 mm 3 mps 761 mmHg 81%
    04:00 +8°C° 0 mm 2 mps 761 mmHg 81%
    05:00 +9°C° 0 mm 2 mps 761 mmHg 80%
    06:00 +11°C° 0 mm 1 mps 761 mmHg 80%
    07:00 +12°C° 0 mm 1 mps 761 mmHg 76%
    08:00 +14°C° 0 mm 1 mps 761 mmHg 72%
    09:00 +15°C° 0 mm 1 mps 761 mmHg 68%
    10:00 +16°C° 0 mm 1 mps 761 mmHg 66%
    11:00 +16°C° 0 mm 2 mps 761 mmHg 64%
    12:00 +17°C° 0 mm 2 mps 761 mmHg 62%
    13:00 +17°C° 0.1 mm 2 mps 761 mmHg 65%
    14:00 +17°C° 0.1 mm 2 mps 761 mmHg 67%
    15:00 +17°C° 0.1 mm 2 mps 761 mmHg 69%
    16:00 +17°C° 0.1 mm 2 mps 761 mmHg 72%
    17:00 +16°C° 0.1 mm 2 mps 761 mmHg 75%
    18:00 +16°C° 0.1 mm 2 mps 761 mmHg 78%
    19:00 +15°C° 0 mm 2 mps 761 mmHg 81%
    20:00 +14°C° 0 mm 2 mps 761 mmHg 84%
    21:00 +13°C° 0 mm 2 mps 761 mmHg 86%
    22:00 +13°C° 0 mm 2 mps 761 mmHg 87%
    23:00 +13°C° 0 mm 1 mps 761 mmHg 87%

    23 June, Sunday

    Time Temperature Precipitation Wind Pressure Humidity
    00:00 +12°C° 0 mm 1 mps 761 mmHg 87%
    01:00 +12°C° 0 mm 1 mps 761 mmHg 88%
    02:00 +12°C° 0 mm 1 mps 761 mmHg 89%
    03:00 +11°C° 0 mm 1 mps 761 mmHg 89%
    04:00 +12°C° 0 mm 1 mps 761 mmHg 89%
    05:00 +13°C° 0 mm 1 mps 761 mmHg 88%
    06:00 +13°C° 0 mm 2 mps 761 mmHg 87%
    07:00 +14°C° 0 mm 2 mps 761 mmHg 85%
    08:00 +15°C° 0 mm 2 mps 762 mmHg 83%
    09:00 +16°C° 0 mm 3 mps 762 mmHg 81%
    10:00 +16°C° 0 mm 3 mps 762 mmHg 79%
    11:00 +17°C° 0 mm 3 mps 762 mmHg 77%
    12:00 +17°C° 0 mm 3 mps 762 mmHg 75%
    13:00 +18°C° 0.1 mm 4 mps 762 mmHg 75%
    14:00 +18°C° 0.1 mm 4 mps 762 mmHg 75%
    15:00 +17°C° 0.1 mm 5 mps 762 mmHg 75%
    16:00 +17°C° 0 mm 5 mps 762 mmHg 77%
    17:00 +16°C° 0 mm 5 mps 762 mmHg 79%
    18:00 +16°C° 0 mm 5 mps 762 mmHg 81%
    19:00 +14°C° 0 mm 4 mps 762 mmHg 85%
    20:00 +13°C° 0 mm 4 mps 763 mmHg 89%
    21:00 +12°C° 0 mm 3 mps 763 mmHg 94%
    22:00 +12°C° 0 mm 3 mps 763 mmHg 94%
    23:00 +11°C° 0 mm 3 mps 763 mmHg 94%

    24 June, Monday

    Time Temperature Precipitation Wind Pressure Humidity
    00:00 +11°C° 0 mm 3 mps 763 mmHg 94%
    01:00 +11°C° 0 mm 3 mps 763 mmHg 94%
    02:00 +11°C° 0 mm 3 mps 763 mmHg 94%
    03:00 +11°C° 0 mm 3 mps 763 mmHg 94%
    04:00 +11°C° 0 mm 4 mps 763 mmHg 93%
    05:00 +12°C° 0 mm 4 mps 763 mmHg 92%
    06:00 +12°C° 0 mm 5 mps 762 mmHg 90%
    07:00 +12°C° 0.4 mm 5 mps 762 mmHg 92%
    08:00 +12°C° 0.4 mm 5 mps 762 mmHg 94%
    09:00 +12°C° 0.4 mm 5 mps 762 mmHg 96%
    10:00 +11°C° 2.3 mm 6 mps 762 mmHg 96%
    11:00 +11°C° 2.3 mm 7 mps 762 mmHg 97%
    12:00 +12°C° 2.3 mm 7 mps 762 mmHg 97%
    13:00 +11°C° 2 mm 7 mps 762 mmHg 97%
    14:00 +11°C° 2 mm 7 mps 762 mmHg 96%
    15:00 +11°C° 2 mm 7 mps 762 mmHg 96%
    16:00 +11°C° 1 mm 8 mps 762 mmHg 96%
    17:00 +11°C° 1 mm 8 mps 762 mmHg 96%
    18:00 +11°C° 1 mm 8 mps 762 mmHg 96%
    19:00 +11°C° 0.4 mm 8 mps 763 mmHg 96%
    20:00 +11°C° 0.4 mm 7 mps 763 mmHg 96%
    21:00 +11°C° 0.4 mm 7 mps 764 mmHg 97%
    22:00 +11°C° 0.1 mm 7 mps 764 mmHg 97%
    23:00 +11°C° 0.1 mm 7 mps 764 mmHg 97%

    25 June, Tuesday

    Time Temperature Precipitation Wind Pressure Humidity
    00:00 +11°C° 0.1 mm 7 mps 764 mmHg 97%
    01:00 +11°C° 0.1 mm 7 mps 764 mmHg 97%
    02:00 +11°C° 0.1 mm 7 mps 764 mmHg 97%
    03:00 +11°C° 0.1 mm 7 mps 764 mmHg 97%
    04:00 +11°C° 1 mm 7 mps 764 mmHg 97%
    05:00 +11°C° 1 mm 7 mps 764 mmHg 97%
    06:00 +11°C° 1 mm 8 mps 764 mmHg 97%
    07:00 +10°C° 0.7 mm 8 mps 764 mmHg 97%
    08:00 +10°C° 0.7 mm 9 mps 764 mmHg 97%
    09:00 +10°C° 0.7 mm 9 mps 764 mmHg 96%
    10:00 +11°C° 0.5 mm 9 mps 765 mmHg 96%
    11:00 +11°C° 0.5 mm 9 mps 765 mmHg 95%
    12:00 +11°C° 0.5 mm 10 mps 765 mmHg 95%
    13:00 +11°C° 0 mm 10 mps 764 mmHg 93%
    14:00 +12°C° 0 mm 10 mps 764 mmHg 90%
    15:00 +12°C° 0 mm 9 mps 764 mmHg 88%
    16:00 +12°C° 0 mm 9 mps 764 mmHg 88%
    17:00 +12°C° 0 mm 9 mps 764 mmHg 88%
    18:00 +12°C° 0 mm 8 mps 764 mmHg 88%
    19:00 +12°C° 0 mm 8 mps 765 mmHg 89%
    20:00 +11°C° 0 mm 8 mps 765 mmHg 89%
    21:00 +11°C° 0 mm 7 mps 766 mmHg 90%
    22:00 +11°C° 0 mm 7 mps 766 mmHg 91%
    23:00 +11°C° 0 mm 6 mps 766 mmHg 92%
    Show more